Temp
-6 -7 -7 -7 -6 -6 -7 -7 -8 -8 -8 -8 -6 -6 -6 -6 -6 -6 -7 -8 -8 -7 -7 -7 -8 -8 -8 -8 -8 -9 -9 -9 -9 -8 -8 -8 -8 -8 -8 -8 -8 -7 -7 -7 -7 -6 -6 -7 -7
-6 -6 -6 -6 -6 -7 -7 -6 -7 -8 -7 -6 -7 -7 -6 -6 -6 -7 -7 -8 -8 -8 -8 -8 -8 -8 -8 -8 -8 -8 -8 -8 -8 -9 -9 -9 -8 -8 -8 -8 -8 -7 -7 -7 -7 -7 -7 -7 -7
-6 -6 -6 -6 -6 -6 -6 -7 -8 -8 -7 -7 -6 -7 -6 -6 -7 -7 -7 -8 -9 -9 -8 -8 -8 -8 -8 -8 -8 -8 -9 -9 -9 -9 -9 -9 -9 -9 -9 -8 -8 -8 -8 -7 -7 -7 -7 -8 -8
-6 -6 -6 -5 -6 -6 -5 -7 -8 -8 -8 -8 -7 -7 -6 -6 -6 -6 -7 -7 -7 -8 -8 -9 -9 -9 -8 -9 -9 -9 -9 -9 -9 -9 -9 -9 -9 -9 -9 -9 -9 -9 -8 -8 -8 -8 -8 -8 -8
-7 -6 -6 -6 -5 -5 -6 -7 -8 -7 -7 -7 -7 -7 -7 -6 -7 -6 -6 -6 -7 -7 -8 -9 -9 -9 -9 -9 -9 -9 -9 -9 -10 -10 -10 -10 -10 -9 -9 -9 -9 -9 -9 -8 -8 -9 -9 -9 -9
-7 -6 -6 -5 -6 -5 -7 -8 -7 -8 -8 -7 -8 -7 -6 -6 -6 -6 -6 -6 -6 -7 -8 -9 -9 -9 -9 -9 -9 -9 -9 -10 -10 -10 -10 -10 -10 -10 -10 -10 -10 -10 -9 -9 -9 -9 -9 -9 -9
-6 -5 -6 -6 -7 -6 -6 -7 -8 -8 -8 -7 -7 -7 -6 -6 -6 -6 -6 -6 -7 -8 -8 -9 -9 -9 -9 -9 -9 -10 -10 -10 -11 -11 -11 -11 -11 -10 -10 -10 -10 -9 -9 -9 -9 -9 -9 -8 -8
-7 -7 -7 -6 -6 -5 -7 -8 -8 -8 -8 -8 -7 -7 -6 -6 -6 -6 -6 -7 -7 -8 -8 -8 -8 -9 -9 -9 -10 -10 -11 -11 -11 -11 -11 -11 -11 -10 -10 -10 -9 -10 -9 -9 -9 -8 -8 -8 -8
-7 -7 -7 -5 -5 -6 -8 -8 -8 -8 -9 -8 -7 -7 -6 -6 -6 -7 -7 -7 -8 -8 -8 -8 -8 -9 -9 -9 -10 -10 -11 -11 -11 -11 -11 -11 -10 -10 -10 -10 -9 -9 -9 -8 -8 -8 -8 -8 -8
-7 -8 -7 -6 -5 -7 -9 -8 -8 -8 -8 -8 -7 -7 -7 -7 -7 -7 -7 -8 -8 -9 -9 -8 -9 -9 -9 -9 -10 -11 -11 -11 -11 -10 -10 -10 -10 -10 -10 -10 -9 -10 -9 -9 -9 -8 -8 -8 -8
-8 -8 -7 -7 -6 -7 -7 -9 -9 -7 -8 -8 -7 -7 -8 -7 -7 -7 -7 -8 -8 -9 -9 -9 -9 -9 -9 -10 -10 -11 -11 -11 -10 -10 -10 -10 -10 -10 -10 -11 -10 -10 -9 -9 -9 -9 -8 -8 -8
-7 -8 -8 -7 -7 -6 -6 -9 -8 -7 -8 -8 -7 -7 -7 -7 -7 -7 -7 -8 -8 -9 -9 -9 -9 -9 -9 -9 -9 -10 -10 -10 -10 -10 -10 -10 -10 -10 -11 -11 -10 -10 -10 -9 -9 -9 -9 -9 -8
-6 -8 -7 -6 -6 -5 -7 -9 -8 -7 -9 -8 -7 -7 -7 -7 -7 -7 -6 -7 -7 -8 -8 -9 -9 -9 -9 -9 -9 -9 -9 -9 -9 -9 -9 -10 -10 -10 -10 -10 -10 -10 -10 -10 -10 -10 -10 -9 -9
-6 -7 -7 -6 -5 -5 -7 -8 -8 -7 -8 -9 -7 -7 -7 -7 -7 -7 -7 -7 -7 -8 -8 -8 -8 -8 -8 -8 -8 -9 -9 -9 -9 -9 -9 -9 -9 -10 -10 -10 -10 -10 -10 -10 -10 -10 -10 -10 -10
-6 -7 -7 -7 -6 -5 -7 -7 -7 -7 -8 -9 -7 -7 -6 -7 -7 -6 -7 -7 -7 -7 -8 -8 -8 -9 -9 -9 -9 -9 -9 -9 -9 -9 -10 -9 -10 -9 -10 -10 -10 -10 -10 -10 -10 -10 -10 -10 -10
-7 -7 -8 -7 -7 -7 -8 -7 -8 -8 -8 -8 -7 -7 -7 -7 -7 -7 -7 -7 -7 -7 -8 -8 -8 -8 -9 -9 -9 -9 -9 -9 -9 -10 -9 -10 -10 -10 -10 -10 -10 -10 -10 -10 -10 -10 -10 -10 -10
-7 -7 -7 -8 -7 -9 -8 -8 -8 -8 -8 -9 -8 -8 -8 -8 -7 -7 -7 -7 -8 -8 -8 -8 -8 -9 -9 -9 -9 -9 -9 -10 -10 -10 -10 -10 -10 -10 -10 -10 -10 -10 -10 -10 -10 -10 -11 -10 -11
-7 -7 -7 -7 -8 -9 -8 -7 -8 -9 -8 -9 -9 -9 -9 -8 -8 -8 -8 -7 -7 -8 -8 -8 -9 -9 -9 -9 -9 -9 -10 -10 -9 -10 -10 -10 -10 -10 -10 -10 -10 -10 -10 -10 -10 -10 -10 -11 -11
-8 -8 -7 -7 -8 -9 -9 -9 -8 -9 -8 -8 -9 -9 -9 -9 -8 -8 -8 -8 -8 -8 -9 -9 -9 -9 -9 -9 -9 -10 -10 -10 -10 -10 -10 -10 -10 -10 -10 -10 -11 -11 -11 -11 -11 -11 -11 -11 -11
-8 -8 -8 -8 -8 -7 -9 -9 -8 -8 -8 -8 -8 -9 -9 -9 -9 -8 -8 -8 -9 -8 -9 -9 -9 -9 -9 -9 -10 -10 -10 -10 -10 -10 -10 -10 -10 -10 -10 -10 -10 -10 -10 -11 -11 -12 -11 -11 -11
-8 -8 -8 -8 -8 -9 -9 -8 -8 -8 -8 -8 -8 -8 -9 -9 -9 -8 -8 -8 -8 -9 -9 -9 -9 -9 -9 -9 -9 -10 -9 -9 -10 -10 -10 -10 -10 -11 -10 -10 -10 -11 -11 -11 -11 -12 -12 -12 -12
-8 -8 -9 -8 -8 -8 -9 -8 -8 -8 -8 -8 -8 -8 -9 -9 -10 -10 -9 -9 -9 -9 -9 -10 -10 -10 -10 -11 -11 -11 -12 -10 -10 -11 -10 -10 -10 -11 -10 -10 -10 -11 -11 -11 -11 -12 -12 -11 -12
-7 -8 -8 -9 -9 -8 -8 -9 -8 -8 -7 -8 -8 -9 -9 -9 -10 -10 -10 -10 -9 -9 -9 -10 -9 -9 -11 -11 -11 -12 -12 -13 -12 -12 -11 -11 -11 -11 -11 -10 -11 -10 -10 -11 -10 -10 -11 -11 -11
-8 -9 -8 -9 -8 -7 -7 -9 -8 -8 -8 -9 -9 -9 -9 -9 -10 -10 -10 -9 -10 -10 -9 -9 -10 -10 -11 -11 -12 -11 -12 -12 -13 -12 -12 -11 -11 -12 -12 -12 -12 -12 -11 -11 -11 -11 -11 -12 -12
-7 -9 -8 -9 -8 -7 -8 -9 -8 -9 -9 -9 -9 -9 -9 -9 -10 -10 -10 -10 -9 -9 -9 -10 -10 -10 -10 -10 -11 -11 -10 -11 -11 -11 -11 -11 -12 -11 -12 -12 -12 -12 -11 -12 -11 -12 -12 -12 -12
-8 -8 -8 -8 -8 -8 -8 -9 -8 -9 -9 -9 -9 -9 -9 -9 -9 -9 -10 -10 -9 -9 -10 -10 -10 -10 -10 -10 -10 -11 -11 -11 -11 -10 -11 -10 -11 -11 -11 -12 -11 -11 -11 -11 -12 -12 -12 -12 -13
-9 -9 -8 -9 -8 -9 -8 -8 -9 -9 -9 -9 -9 -9 -9 -9 -10 -9 -10 -10 -11 -11 -11 -11 -10 -10 -10 -11 -10 -11 -11 -12 -11 -11 -12 -12 -11 -11 -11 -12 -12 -11 -11 -11 -12 -12 -12 -12 -13
-10 -10 -10 -10 -10 -9 -8 -8 -9 -9 -9 -9 -9 -8 -9 -10 -9 -9 -10 -11 -11 -11 -11 -11 -10 -10 -10 -10 -11 -11 -11 -11 -11 -11 -11 -11 -11 -11 -12 -12 -12 -12 -12 -12 -12 -12 -13 -13 -13
-10 -10 -10 -11 -10 -10 -9 -8 -9 -9 -9 -9 -9 -10 -9 -9 -9 -10 -10 -11 -9 -10 -11 -11 -11 -11 -11 -11 -11 -11 -11 -11 -11 -11 -11 -11 -11 -12 -12 -12 -12 -13 -13 -13 -13 -13 -14 -14 -13
-10 -10 -11 -10 -10 -10 -10 -9 -9 -9 -9 -9 -9 -9 -9 -10 -10 -10 -10 -11 -11 -11 -11 -11 -11 -11 -11 -11 -11 -11 -11 -11 -11 -11 -11 -11 -11 -11 -11 -12 -12 -13 -14 -14 -14 -14 -14 -14 -14
Height
5896 5895 5895 5896 5900 5899 5899 5900 5897 5893 5890 5889 5888 5887 5886 5885 5884 5885 5882 5881 5881 5881 5882 5881 5880 5880 5880 5881 5881 5880 5880 5879 5878 5877 5876 5875 5874 5873 5872 5870 5869 5867 5866 5865 5865 5865 5865 5865 5863
5897 5896 5896 5896 5898 5900 5902 5903 5899 5899 5897 5891 5887 5885 5885 5885 5883 5882 5881 5880 5880 5882 5882 5881 5881 5881 5881 5880 5880 5879 5878 5878 5877 5876 5875 5874 5873 5872 5870 5869 5868 5866 5865 5864 5863 5862 5862 5861 5860
5897 5897 5896 5897 5898 5901 5903 5903 5898 5899 5896 5893 5891 5888 5887 5885 5883 5882 5880 5880 5881 5882 5881 5880 5880 5880 5880 5880 5879 5878 5878 5878 5877 5876 5875 5873 5871 5870 5868 5867 5865 5864 5863 5862 5861 5860 5858 5859 5858
5897 5897 5899 5899 5898 5902 5904 5900 5896 5896 5895 5894 5893 5891 5888 5885 5884 5883 5881 5881 5882 5881 5880 5879 5879 5879 5879 5879 5879 5878 5878 5877 5875 5874 5874 5873 5871 5870 5868 5866 5864 5862 5861 5859 5858 5857 5857 5855 5854
5898 5899 5899 5898 5899 5902 5902 5897 5895 5896 5899 5899 5895 5891 5889 5888 5886 5885 5884 5883 5881 5880 5879 5878 5878 5878 5879 5878 5878 5877 5877 5875 5874 5874 5873 5872 5870 5869 5867 5865 5863 5861 5859 5858 5857 5856 5854 5853 5851
5899 5899 5899 5898 5899 5898 5897 5897 5896 5898 5900 5899 5897 5892 5892 5889 5888 5887 5885 5884 5881 5880 5878 5878 5879 5879 5878 5878 5877 5876 5875 5875 5874 5874 5873 5871 5869 5868 5866 5864 5863 5861 5858 5857 5857 5855 5853 5852 5849
5899 5899 5899 5899 5899 5897 5900 5898 5899 5901 5904 5901 5896 5891 5892 5890 5888 5886 5884 5883 5882 5880 5878 5879 5879 5879 5878 5877 5877 5876 5876 5875 5874 5873 5871 5869 5868 5867 5865 5864 5863 5861 5858 5856 5856 5855 5852 5850 5848
5898 5899 5897 5899 5901 5900 5898 5900 5901 5902 5904 5901 5897 5889 5891 5890 5888 5886 5885 5884 5882 5880 5879 5880 5880 5880 5879 5878 5877 5876 5876 5875 5873 5872 5871 5869 5869 5867 5865 5863 5862 5860 5857 5856 5854 5852 5851 5849 5846
5897 5897 5895 5897 5899 5900 5899 5902 5901 5902 5902 5901 5898 5890 5887 5889 5888 5887 5885 5883 5881 5881 5881 5881 5881 5881 5880 5879 5878 5877 5876 5875 5873 5871 5869 5868 5867 5865 5864 5862 5861 5860 5858 5856 5854 5851 5849 5847 5845
5896 5896 5894 5897 5900 5900 5900 5901 5900 5903 5902 5902 5900 5893 5890 5887 5888 5886 5884 5883 5883 5884 5883 5882 5882 5881 5881 5880 5879 5878 5876 5875 5872 5871 5869 5867 5866 5864 5863 5861 5858 5858 5857 5855 5853 5851 5849 5847 5844
5894 5895 5895 5896 5897 5898 5898 5899 5901 5902 5904 5902 5901 5898 5893 5890 5890 5890 5887 5886 5885 5885 5885 5883 5883 5882 5881 5880 5878 5877 5875 5874 5872 5871 5869 5868 5866 5866 5864 5862 5860 5858 5856 5854 5853 5851 5850 5848 5845
5894 5895 5894 5896 5895 5897 5898 5899 5901 5903 5903 5901 5902 5900 5897 5894 5891 5890 5890 5887 5885 5885 5885 5884 5884 5883 5882 5880 5879 5877 5875 5874 5873 5871 5868 5867 5867 5866 5864 5863 5861 5860 5857 5854 5853 5850 5848 5847 5845
5893 5893 5895 5895 5897 5898 5897 5900 5901 5902 5902 5901 5902 5902 5900 5898 5893 5890 5889 5887 5887 5886 5885 5884 5884 5883 5882 5881 5879 5877 5876 5875 5874 5872 5870 5868 5866 5865 5865 5864 5862 5860 5858 5856 5853 5851 5847 5845 5844
5893 5893 5894 5896 5897 5897 5898 5900 5901 5902 5903 5901 5900 5901 5900 5898 5897 5894 5889 5888 5887 5886 5886 5886 5886 5886 5885 5883 5881 5879 5877 5876 5873 5871 5870 5869 5868 5867 5865 5863 5861 5858 5857 5856 5854 5853 5849 5845 5843
5893 5894 5893 5894 5895 5897 5899 5901 5903 5903 5903 5902 5898 5897 5896 5897 5898 5896 5893 5891 5889 5889 5889 5888 5886 5885 5884 5883 5881 5880 5879 5877 5875 5872 5871 5870 5868 5866 5864 5862 5860 5858 5855 5854 5853 5852 5851 5847 5842
5892 5894 5894 5893 5894 5897 5898 5902 5903 5902 5902 5902 5897 5897 5894 5893 5897 5897 5896 5895 5894 5893 5892 5892 5891 5889 5887 5885 5883 5881 5878 5876 5874 5873 5871 5868 5866 5864 5862 5860 5858 5857 5856 5854 5851 5848 5848 5846 5844
5891 5893 5894 5892 5893 5894 5896 5900 5901 5901 5901 5901 5898 5898 5897 5896 5893 5893 5895 5895 5895 5894 5894 5894 5893 5890 5889 5887 5884 5882 5878 5876 5874 5872 5869 5866 5864 5862 5859 5857 5856 5854 5852 5851 5848 5846 5842 5842 5841
5888 5891 5892 5894 5894 5893 5895 5897 5897 5899 5900 5902 5900 5899 5898 5896 5896 5893 5892 5892 5892 5890 5890 5889 5890 5888 5887 5885 5882 5880 5879 5876 5870 5867 5864 5862 5860 5859 5856 5854 5851 5848 5846 5844 5842 5840 5841 5839 5835
5885 5888 5891 5894 5891 5888 5890 5892 5894 5896 5898 5900 5900 5899 5898 5895 5894 5895 5893 5891 5890 5887 5885 5884 5883 5882 5881 5879 5877 5875 5873 5869 5865 5864 5862 5860 5858 5857 5854 5851 5849 5846 5843 5840 5836 5835 5833 5832 5832
5879 5882 5889 5891 5889 5886 5887 5888 5889 5890 5895 5897 5897 5898 5898 5895 5892 5891 5892 5891 5889 5886 5882 5881 5878 5879 5877 5874 5873 5872 5870 5866 5864 5862 5860 5858 5855 5852 5851 5849 5846 5842 5839 5836 5834 5831 5828 5827 5825
5874 5878 5883 5886 5883 5882 5883 5882 5883 5886 5890 5892 5894 5895 5895 5893 5891 5890 5891 5890 5889 5885 5882 5880 5878 5877 5876 5873 5870 5868 5866 5864 5861 5860 5857 5854 5852 5849 5846 5844 5842 5839 5837 5834 5831 5826 5823 5820 5819
5869 5875 5876 5878 5877 5878 5877 5876 5880 5882 5885 5887 5889 5890 5889 5889 5888 5888 5888 5887 5886 5883 5881 5877 5875 5874 5872 5869 5867 5864 5862 5860 5856 5854 5852 5849 5847 5844 5842 5839 5837 5836 5833 5829 5828 5825 5820 5817 5812
5868 5867 5869 5871 5871 5871 5874 5872 5875 5876 5879 5882 5884 5886 5885 5884 5884 5885 5884 5882 5882 5880 5877 5873 5871 5869 5869 5865 5861 5858 5854 5852 5849 5847 5845 5844 5842 5839 5837 5834 5833 5831 5828 5825 5822 5818 5814 5811 5808
5864 5862 5864 5866 5866 5864 5871 5868 5870 5872 5875 5877 5880 5881 5881 5881 5881 5880 5881 5880 5878 5876 5872 5869 5868 5866 5865 5860 5855 5852 5849 5848 5844 5839 5841 5839 5836 5832 5829 5828 5824 5822 5820 5818 5815 5812 5808 5805 5801
5857 5858 5859 5860 5862 5863 5868 5864 5866 5868 5870 5870 5873 5876 5877 5877 5877 5876 5876 5878 5875 5871 5868 5865 5864 5865 5862 5857 5853 5853 5847 5843 5839 5838 5836 5834 5829 5824 5822 5823 5820 5817 5814 5810 5808 5804 5799 5796 5792
5848 5852 5855 5854 5859 5863 5862 5859 5861 5864 5865 5865 5868 5869 5872 5872 5873 5873 5872 5872 5870 5868 5865 5864 5861 5859 5858 5856 5851 5846 5843 5843 5838 5834 5830 5828 5825 5822 5816 5815 5814 5811 5808 5804 5799 5795 5791 5787 5783
5846 5848 5852 5852 5854 5854 5856 5855 5856 5857 5859 5860 5863 5865 5865 5866 5867 5868 5867 5864 5865 5863 5860 5858 5856 5855 5851 5849 5846 5843 5842 5836 5833 5826 5821 5820 5817 5814 5808 5807 5804 5802 5799 5796 5791 5788 5784 5778 5773
5840 5846 5846 5846 5846 5847 5849 5849 5851 5852 5852 5853 5857 5858 5858 5860 5862 5862 5860 5860 5860 5859 5856 5855 5852 5849 5846 5843 5839 5837 5834 5830 5826 5821 5816 5813 5811 5807 5803 5801 5797 5792 5789 5785 5781 5776 5771 5767 5761
5834 5838 5839 5839 5840 5842 5843 5844 5847 5847 5847 5848 5850 5851 5851 5853 5855 5856 5852 5853 5851 5852 5852 5850 5849 5844 5840 5836 5834 5832 5830 5825 5820 5816 5812 5808 5804 5801 5796 5791 5786 5782 5778 5774 5768 5762 5757 5752 5747
5828 5832 5831 5831 5836 5837 5837 5839 5840 5841 5842 5845 5845 5848 5849 5846 5848 5847 5840 5847 5846 5844 5844 5843 5839 5837 5833 5830 5830 5826 5823 5817 5812 5810 5807 5803 5798 5793 5789 5782 5775 5770 5765 5759 5753 5749 5743 5737 5730
Wind_Speed
12 6 4 3 4 11 13 16 29 30 33 22 17 16 11 9 7 8 9 8 9 9 8 7 4 5 6 7 8 8 9 10 12 13 13 13 14 15 17 17 18 19 20 20 19 19 18 17 16
11 5 9 13 12 10 6 9 25 27 22 16 18 17 14 11 10 9 9 7 7 7 10 8 6 7 8 8 8 10 10 10 9 9 10 11 12 13 15 17 18 19 19 19 19 19 18 15 12
12 7 10 10 8 8 4 17 29 29 23 18 15 13 13 13 11 10 9 7 8 8 5 3 4 4 4 6 8 8 8 8 7 8 10 12 13 14 15 17 17 18 18 18 18 19 17 15 14
13 11 6 5 6 8 11 23 29 30 26 27 17 15 19 17 14 11 9 6 4 2 3 3 3 6 7 8 8 7 7 7 7 9 10 12 13 14 14 14 15 16 18 18 19 18 17 16 15
13 11 10 8 5 3 14 24 28 30 24 22 15 17 17 12 8 10 10 6 3 3 2 3 4 5 7 8 8 5 6 6 7 8 9 10 11 13 15 16 17 17 18 18 17 15 14 14 14
14 11 11 8 2 10 22 24 24 27 24 18 19 15 14 12 6 5 6 5 3 2 4 5 5 5 7 6 6 6 5 4 5 6 7 9 11 13 12 12 12 10 11 11 8 9 11 14 14
12 6 8 4 2 12 15 20 21 23 18 13 14 18 10 12 8 6 6 4 4 6 8 6 4 4 5 5 6 5 4 4 6 6 6 8 7 8 8 10 9 10 12 12 11 13 15 17 16
10 8 8 4 1 5 16 17 17 17 25 24 14 17 11 7 7 6 4 4 7 10 10 8 6 5 4 4 4 5 4 4 7 8 8 8 9 9 9 8 9 11 11 13 15 15 15 16 17
12 9 11 4 5 5 12 12 15 20 28 21 14 12 12 9 6 4 3 6 11 10 10 7 8 6 4 4 3 2 3 5 8 9 10 9 7 8 8 7 10 12 15 12 12 13 13 15 16
14 11 14 7 4 1 5 11 18 19 23 21 13 10 10 11 6 6 5 8 8 8 7 7 6 4 4 3 2 3 4 6 8 9 11 10 6 5 7 8 11 15 16 14 13 12 13 15 17
18 18 13 6 5 5 6 14 18 19 20 19 12 9 8 8 2 3 0 6 7 7 6 6 4 2 2 2 4 5 6 7 8 10 12 13 10 7 7 9 12 13 13 11 11 11 12 15 16
20 16 18 10 8 7 8 12 17 18 26 17 9 8 8 6 5 3 2 7 7 7 5 4 3 3 3 4 7 7 9 10 9 8 7 9 9 9 10 10 13 13 11 8 7 7 9 13 14
23 21 21 16 13 11 7 13 21 18 13 9 6 7 9 8 5 4 2 6 8 8 7 6 3 4 5 8 10 9 10 10 8 9 10 9 8 8 6 10 11 11 10 8 8 8 10 11 12
24 24 24 24 21 11 10 16 18 17 8 13 8 5 7 8 6 5 3 3 4 4 4 4 4 5 7 9 11 11 11 12 13 13 12 11 11 8 6 8 9 10 10 10 8 6 7 9 10
27 26 25 21 15 11 9 13 17 13 6 12 9 6 6 9 5 3 2 2 3 2 1 1 2 4 4 5 5 6 9 10 9 7 7 6 5 6 7 9 11 11 11 12 14 14 10 8 8
31 28 28 23 18 10 15 12 6 10 5 15 10 8 11 11 5 1 2 3 3 4 2 1 2 3 4 5 6 6 7 8 9 8 8 8 7 9 10 11 13 15 15 15 15 17 16 16 15
35 32 31 23 18 8 13 7 5 9 11 7 8 9 11 11 15 11 6 1 3 2 0 1 4 3 5 7 9 9 9 10 12 11 12 10 11 13 14 15 15 16 17 18 19 20 21 19 19
39 37 33 27 20 18 17 10 6 7 12 2 6 10 14 7 7 10 11 12 10 7 5 8 7 7 8 8 9 10 11 13 16 15 14 13 15 15 16 17 17 18 19 20 21 21 23 23 22
41 39 37 29 28 24 18 16 10 8 6 6 4 6 8 15 8 4 6 10 10 9 9 10 11 13 12 11 12 14 12 17 20 19 17 18 17 19 20 17 18 21 22 23 23 22 22 24 22
47 40 34 30 29 31 24 20 13 13 7 7 2 5 5 11 16 6 10 8 9 8 11 13 16 15 16 17 17 18 18 20 21 19 18 19 17 17 19 20 23 24 22 19 22 23 22 22 21
40 31 35 32 32 29 25 29 23 13 10 10 4 8 9 11 14 8 12 15 11 10 11 14 18 21 23 26 26 25 25 25 22 20 18 18 19 18 18 22 22 24 20 22 23 22 24 24 24
33 28 35 37 36 33 27 30 22 11 11 9 13 10 8 12 12 14 20 20 20 15 15 21 23 25 25 29 30 26 26 26 25 22 22 19 20 19 20 22 23 25 25 25 27 27 25 27 31
28 33 36 42 42 39 32 31 23 20 16 11 12 9 3 8 13 20 21 23 23 13 17 19 22 31 33 25 26 35 38 23 27 26 23 21 22 19 22 24 25 25 28 28 28 32 34 35 32
31 38 40 45 44 42 32 28 24 23 17 16 18 13 14 11 15 19 17 20 22 15 18 21 23 27 25 30 25 20 14 20 28 29 27 28 27 20 18 23 26 28 30 31 36 36 37 36 36
35 42 42 47 45 42 32 30 25 24 24 19 16 12 19 21 20 20 20 19 17 20 23 20 19 21 21 28 19 25 21 24 32 37 39 34 41 24 18 21 28 31 33 34 38 38 38 39 40
38 38 44 51 45 37 39 33 31 26 23 21 20 17 21 24 29 25 23 17 16 18 17 21 19 23 27 23 23 29 29 27 40 30 28 35 29 27 21 18 28 33 36 38 39 42 43 45 46
34 34 34 41 42 37 41 38 35 34 32 29 26 26 23 26 24 26 25 19 15 18 20 23 24 25 25 26 25 27 26 31 36 46 34 33 26 26 21 29 31 37 40 42 44 47 46 47 48
34 32 32 32 35 37 40 43 36 36 38 39 30 28 27 24 23 23 23 15 19 21 22 25 25 27 25 27 27 30 31 34 38 39 32 28 29 25 49 41 39 40 42 43 45 47 48 49 49
33 32 35 36 38 37 38 47 41 39 42 36 25 26 25 27 23 26 31 14 31 27 23 19 24 25 26 28 31 32 35 36 37 38 38 40 38 54 48 48 46 45 47 51 49 50 50 52 54
30 31 34 41 37 36 33 40 43 45 44 36 31 17 19 32 28 34 15 13 27 32 26 22 25 28 28 32 33 34 38 40 41 41 41 44 47 47 53 54 53 51 51 52 51 53 55 57 56
Wind_Direction
142 148 198 236 151 129 68 32 33 26 17 2 357 358 2 1 358 351 342 357 353 347 318 298 291 295 297 298 303 297 291 285 283 289 295 301 302 302 301 302 301 300 299 299 300 299 297 294 287
138 127 138 118 116 132 105 13 43 27 9 14 5 348 352 358 356 347 335 344 346 313 301 314 303 321 307 297 296 288 281 279 283 290 295 293 293 296 296 295 295 296 298 299 299 298 297 296 304
154 146 143 136 132 118 121 43 42 29 34 29 12 349 10 12 6 359 357 337 296 285 292 323 336 341 317 307 294 288 286 287 292 297 293 294 295 294 291 291 293 293 292 291 290 288 290 300 299
178 186 172 142 174 125 55 33 37 26 25 18 18 5 21 19 32 35 27 14 350 306 290 297 332 345 334 318 306 288 285 284 284 288 294 296 296 295 294 295 295 295 294 293 294 295 299 297 294
179 181 181 200 203 29 41 35 32 26 23 8 10 12 14 27 35 33 21 2 6 12 25 20 5 326 308 300 296 284 276 276 279 284 292 294 295 297 300 301 299 297 295 293 295 304 305 305 306
183 190 199 234 334 22 33 45 32 22 5 3 12 353 4 22 38 41 25 11 22 34 40 36 7 325 309 295 276 265 261 271 279 287 292 291 295 305 313 319 317 319 314 312 321 325 315 313 310
191 223 208 194 336 23 29 36 27 22 360 357 342 336 342 12 4 24 33 38 42 58 51 28 355 319 277 262 261 256 251 268 276 280 280 286 298 318 314 319 323 336 334 323 325 324 320 319 314
188 219 229 235 317 2 28 15 11 10 4 357 355 324 333 1 355 39 44 44 54 48 40 18 358 327 302 280 274 271 274 265 269 275 280 289 308 323 333 326 8 9 351 335 329 329 327 322 319
178 205 241 250 268 12 23 355 2 358 6 351 350 326 333 347 356 23 51 53 51 51 50 35 32 21 18 25 18 336 310 295 291 294 295 288 294 311 334 337 353 3 357 350 341 337 340 342 347
189 209 236 252 274 295 14 333 351 355 360 352 19 9 335 341 20 358 28 59 58 61 65 61 50 46 27 17 360 346 321 310 309 313 307 309 309 311 343 344 352 351 344 351 352 349 350 4 7
202 207 236 236 217 298 331 344 330 341 348 347 22 18 3 341 316 323 358 101 94 67 51 56 60 19 336 327 347 346 328 318 310 321 341 351 340 339 343 336 337 338 340 357 358 8 23 16 22
210 204 215 211 270 280 295 321 320 340 336 338 359 38 42 348 306 331 176 127 110 91 85 63 56 56 18 15 27 19 3 19 24 18 12 14 5 1 353 340 336 334 347 3 37 21 19 16 21
217 203 217 236 261 271 305 300 302 328 338 335 356 43 51 30 344 331 327 124 115 112 105 106 92 69 64 65 50 35 26 40 50 37 32 19 11 6 356 332 330 331 341 356 13 22 11 14 22
228 221 231 247 283 277 285 287 310 326 307 336 330 44 64 55 35 360 7 93 104 102 106 97 100 102 72 49 43 42 36 36 35 34 34 31 27 20 2 339 335 324 328 329 331 346 358 2 5
225 225 239 256 261 257 268 292 330 343 289 331 326 2 17 69 74 85 47 124 126 134 87 25 32 36 46 31 32 26 15 15 15 16 9 13 11 349 352 333 332 328 320 317 321 317 316 313 318
226 231 233 254 253 254 270 292 2 33 338 346 342 358 360 355 2 54 101 158 153 138 165 275 327 351 334 330 336 340 343 334 326 330 316 312 320 317 312 309 310 310 311 314 307 306 312 311 312
231 231 236 251 263 241 244 227 271 360 354 3 19 21 350 340 319 319 321 299 226 134 356 307 276 280 286 296 307 310 307 304 293 288 282 294 301 300 300 297 297 299 297 294 293 296 295 295 295
225 229 239 255 243 238 247 244 263 337 352 19 55 48 26 9 320 306 312 318 329 344 335 314 295 300 294 312 309 297 291 288 280 272 287 292 293 298 296 298 295 292 289 285 285 288 291 294 292
231 237 243 256 235 230 240 261 253 270 324 352 5 9 347 1 7 285 313 324 328 320 309 302 301 302 300 301 311 298 290 290 287 291 290 291 300 312 313 311 311 311 304 288 285 285 286 284 289
231 241 248 245 231 230 233 247 246 244 283 322 338 329 345 9 5 339 6 331 323 314 299 304 311 312 312 308 309 303 297 291 288 291 294 299 304 305 305 315 320 329 314 312 302 286 285 292 288
225 232 239 242 226 234 234 242 242 249 272 304 266 302 342 359 2 345 349 347 328 303 310 322 325 318 316 311 307 310 303 298 291 289 292 298 302 310 308 316 308 316 311 317 314 301 286 286 281
216 224 232 231 225 228 240 249 250 263 270 282 306 318 317 330 340 322 323 326 330 320 333 342 343 338 329 315 316 299 290 294 286 287 292 298 299 300 310 305 304 305 304 307 305 313 311 308 292
209 222 228 220 220 228 234 247 246 249 256 279 303 306 305 285 305 310 314 319 335 334 331 342 350 352 333 331 319 299 293 275 280 281 283 290 289 295 300 298 302 302 305 304 305 301 303 304 300
210 219 220 217 222 233 232 245 248 258 272 267 284 275 295 281 289 292 304 319 322 348 344 352 346 343 352 349 343 325 288 287 281 277 274 277 277 280 293 301 302 304 305 307 305 300 300 300 299
219 215 220 222 229 244 241 245 256 260 262 256 266 280 273 291 271 276 293 309 319 345 346 344 340 338 348 342 338 333 326 305 302 306 309 302 277 257 273 298 300 300 300 300 301 300 300 299 296
227 223 225 229 237 247 251 247 252 261 259 265 255 250 266 271 286 278 294 297 315 335 343 329 322 344 346 344 337 335 330 314 322 318 296 301 284 271 269 288 294 298 300 300 302 300 299 297 296
229 233 236 239 241 249 245 248 250 259 257 256 248 260 268 268 276 280 276 301 314 327 316 313 338 335 343 339 343 338 322 317 321 324 307 307 293 283 309 311 300 297 297 295 297 297 296 296 293
228 228 235 244 247 242 240 241 249 255 261 264 253 261 257 252 267 277 269 284 292 292 308 301 310 325 336 334 335 333 332 324 324 323 331 325 294 294 314 309 300 295 297 301 299 295 294 292 293
227 221 240 240 234 238 239 241 246 254 261 269 263 269 259 267 250 268 255 271 256 283 293 291 306 322 331 331 331 326 324 323 321 316 308 313 299 308 307 309 307 304 303 303 300 298 297 297 296
226 230 234 231 227 236 248 245 247 252 257 260 273 298 299 266 249 269 230 272 268 280 291 301 322 320 324 325 324 321 322 325 323 316 304 301 303 304 304 306 309 307 302 302 301 300 299 298 295